SWA3725 KPHL-KSTL

Flight info

Callsign SWA3725
Flight time N/A
Altitude 38000
Route MXE PENSY J110 VHP AARCH2
Aircraft B38M/M-SADE2E3GHIJ4J7P2RWZ/LB1D1

Departure

Time 2026-05-06 22:08
Airport Philadelphia International Airport (KPHL)

Arrival

Time N/A
Airport St. Louis Lambert International Airport (KSTL)
Time Latitude Longitude Altitude Speed Heading
2026-05-06 21:51 39.87672 -75.23637 28 ft 0 kts
2026-05-06 22:00 39.87661 -75.23638 28 ft 4 kts
2026-05-06 22:00 39.87640 -75.23641 28 ft 4 kts 16°
2026-05-06 22:01 39.87625 -75.23655 28 ft 4 kts 83°
2026-05-06 22:01 39.87631 -75.23682 28 ft 3 kts 122°
2026-05-06 22:01 39.87642 -75.23705 28 ft 0 kts 122°
2026-05-06 22:04 39.87640 -75.23701 28 ft 2 kts 122°
2026-05-06 22:04 39.87627 -75.23673 28 ft 6 kts 122°
2026-05-06 22:04 39.87619 -75.23651 28 ft 8 kts 107°
2026-05-06 22:05 39.87627 -75.23572 28 ft 14 kts 60°
2026-05-06 22:05 39.87758 -75.23494 28 ft 27 kts 19°
2026-05-06 22:05 39.87950 -75.23442 28 ft 29 kts 347°
2026-05-06 22:05 39.88107 -75.23517 28 ft 24 kts 339°
2026-05-06 22:06 39.88267 -75.23598 28 ft 25 kts 339°
2026-05-06 22:06 39.88437 -75.23655 28 ft 26 kts 12°
2026-05-06 22:06 39.88615 -75.23689 28 ft 27 kts 339°
2026-05-06 22:06 39.88741 -75.23654 28 ft 15 kts 71°
2026-05-06 22:07 39.88718 -75.23585 28 ft 0 kts 157°
2026-05-06 22:07 39.88717 -75.23585 28 ft 1 kts 157°
2026-05-06 22:07 39.88564 -75.23507 28 ft 63 kts 159°
2026-05-06 22:07 39.87901 -75.23182 28 ft 138 kts 159°
2026-05-06 22:08 39.86878 -75.22657 439 ft 159 kts 160°
2026-05-06 22:08 39.85845 -75.22265 1360 ft 158 kts 185°
2026-05-06 22:08 39.84834 -75.22921 1784 ft 183 kts 234°
2026-05-06 22:08 39.84670 -75.24617 2428 ft 203 kts 284°
2026-05-06 22:09 39.85221 -75.26283 3541 ft 204 kts 286°
2026-05-06 22:09 39.85836 -75.28074 4117 ft 226 kts 287°
2026-05-06 22:09 39.86514 -75.29985 4930 ft 237 kts 288°
2026-05-06 22:09 39.87183 -75.31890 6216 ft 224 kts 288°
2026-05-06 22:10 39.87676 -75.33814 7166 ft 228 kts 276°
2026-05-06 22:10 39.87922 -75.35887 8033 ft 233 kts 274°
2026-05-06 22:10 39.88134 -75.37978 8995 ft 235 kts 274°
2026-05-06 22:10 39.88374 -75.40137 9692 ft 249 kts 275°
2026-05-06 22:11 39.88651 -75.42421 10355 ft 262 kts 275°
2026-05-06 22:11 39.88952 -75.44850 10833 ft 282 kts 276°
2026-05-06 22:11 39.89284 -75.47458 11229 ft 302 kts 276°
2026-05-06 22:11 39.89641 -75.50235 11654 ft 319 kts 276°
2026-05-06 22:12 39.90011 -75.53098 12168 ft 330 kts 276°
2026-05-06 22:12 39.90396 -75.56087 12744 ft 338 kts 276°
2026-05-06 22:12 39.90786 -75.59120 13475 ft 341 kts 276°
2026-05-06 22:12 39.91179 -75.62181 14186 ft 344 kts 276°
2026-05-06 22:13 39.91572 -75.65259 14895 ft 346 kts 276°
2026-05-06 22:13 39.91780 -75.68384 15571 ft 346 kts 266°
2026-05-06 22:13 39.91714 -75.71529 16217 ft 349 kts 267°
2026-05-06 22:13 39.91656 -75.74700 16855 ft 352 kts 267°
2026-05-06 22:14 39.91594 -75.77894 17464 ft 354 kts 267°
2026-05-06 22:14 39.91530 -75.81120 18043 ft 357 kts 267°
2026-05-06 22:14 39.91464 -75.84364 18600 ft 360 kts 267°
2026-05-06 22:14 39.91397 -75.87631 19202 ft 361 kts 267°
2026-05-06 22:15 39.91329 -75.90905 19787 ft 362 kts 267°
2026-05-06 22:15 39.91259 -75.94188 20376 ft 363 kts 267°
2026-05-06 22:15 39.91189 -75.97476 20921 ft 364 kts 268°
2026-05-06 22:15 39.91116 -76.00783 21456 ft 365 kts 268°
2026-05-06 22:16 39.91044 -76.04096 21921 ft 367 kts 268°
2026-05-06 22:16 39.90970 -76.07421 22438 ft 367 kts 268°
2026-05-06 22:16 39.90895 -76.10750 22909 ft 368 kts 268°
2026-05-06 22:16 39.90818 -76.14093 23348 ft 370 kts 268°
2026-05-06 22:17 39.90746 -76.17443 23808 ft 370 kts 269°
2026-05-06 22:17 39.90883 -76.20754 24205 ft 372 kts 272°
2026-05-06 22:17 39.91044 -76.24121 24620 ft 373 kts 272°
2026-05-06 22:17 39.91193 -76.27510 24989 ft 375 kts 272°
2026-05-06 22:18 39.91336 -76.30910 25330 ft 378 kts 271°
2026-05-06 22:18 39.91475 -76.34344 25664 ft 381 kts 271°
2026-05-06 22:18 39.91615 -76.37800 26052 ft 382 kts 271°
2026-05-06 22:18 39.91753 -76.41272 26385 ft 385 kts 271°
2026-05-06 22:19 39.91891 -76.44766 26703 ft 387 kts 271°
2026-05-06 22:19 39.92028 -76.48272 27000 ft 389 kts 271°
2026-05-06 22:19 39.92165 -76.51800 27307 ft 391 kts 271°
2026-05-06 22:19 39.92302 -76.55333 27717 ft 390 kts 271°
2026-05-06 22:20 39.92437 -76.58856 28188 ft 388 kts 270°
2026-05-06 22:20 39.92570 -76.62362 28628 ft 387 kts 270°
2026-05-06 22:20 39.92702 -76.65859 29071 ft 386 kts 270°
2026-05-06 22:20 39.92833 -76.69339 29508 ft 384 kts 270°
2026-05-06 22:21 39.92969 -76.72778 29930 ft 383 kts 270°
2026-05-06 22:21 39.93104 -76.76245 30378 ft 381 kts 270°
2026-05-06 22:21 39.93238 -76.79685 30816 ft 380 kts 270°
2026-05-06 22:21 39.93370 -76.83110 31269 ft 377 kts 270°
2026-05-06 22:22 39.93500 -76.86516 31726 ft 375 kts 270°
2026-05-06 22:22 39.93613 -76.89487 32132 ft 372 kts 270°
2026-05-06 22:22 39.93739 -76.92840 32588 ft 369 kts 271°
2026-05-06 22:22 39.93863 -76.96167 33037 ft 366 kts 270°
2026-05-06 22:23 39.93986 -76.99462 33466 ft 363 kts 271°
2026-05-06 22:23 39.94106 -77.02728 33906 ft 359 kts 271°
2026-05-06 22:23 39.94223 -77.05925 34304 ft 357 kts 271°
2026-05-06 22:23 39.94342 -77.09188 34694 ft 354 kts 271°
2026-05-06 22:24 39.94456 -77.12386 35044 ft 353 kts 271°
2026-05-06 22:24 39.94569 -77.15572 35397 ft 350 kts 271°
2026-05-06 22:24 39.94681 -77.18734 35728 ft 348 kts 271°
2026-05-06 22:24 39.94789 -77.21830 36051 ft 346 kts 271°
2026-05-06 22:25 39.94837 -77.23216 36163 ft 346 kts 271°
2026-05-06 22:25 39.94945 -77.26343 36433 ft 345 kts 271°
2026-05-06 22:25 39.95052 -77.29460 36687 ft 344 kts 271°
2026-05-06 22:26 39.95158 -77.32553 37010 ft 341 kts 271°
2026-05-06 22:26 39.95261 -77.35630 37353 ft 337 kts 271°
2026-05-06 22:26 39.95362 -77.38664 37695 ft 333 kts 271°
2026-05-06 22:26 39.95462 -77.41672 37890 ft 332 kts 271°
2026-05-06 22:27 39.95656 -77.47620 37885 ft 326 kts 271°
2026-05-06 22:27 39.95840 -77.53399 37866 ft 326 kts 271°
2026-05-06 22:28 39.96026 -77.59295 37874 ft 326 kts 271°
2026-05-06 22:28 39.96207 -77.65181 37876 ft 324 kts 271°
2026-05-06 22:29 39.96386 -77.71052 37880 ft 325 kts 271°
2026-05-06 22:29 39.96564 -77.77000 37879 ft 331 kts 271°
2026-05-06 22:30 39.96741 -77.83017 37876 ft 332 kts 271°
2026-05-06 22:30 39.96921 -77.89043 37884 ft 332 kts 271°
2026-05-06 22:31 39.97099 -77.95039 37889 ft 331 kts 271°
2026-05-06 22:31 39.97268 -78.01042 37879 ft 331 kts 270°
2026-05-06 22:32 39.97433 -78.07035 37897 ft 331 kts 270°
2026-05-06 22:32 39.97596 -78.13034 37901 ft 331 kts 270°
2026-05-06 22:33 39.97757 -78.19053 37910 ft 332 kts 270°
2026-05-06 22:33 39.97913 -78.25053 37931 ft 331 kts 270°
2026-05-06 22:34 39.98067 -78.31049 37924 ft 331 kts 270°
2026-05-06 22:34 39.98192 -78.36055 37925 ft 333 kts 270°
2026-05-06 22:35 39.98365 -78.43052 37941 ft 332 kts 270°
2026-05-06 22:35 39.98509 -78.49069 37936 ft 332 kts 270°
2026-05-06 22:36 39.98651 -78.55097 37931 ft 332 kts 270°
2026-05-06 22:36 39.98790 -78.61131 37933 ft 333 kts 270°
2026-05-06 22:37 39.98925 -78.67162 37936 ft 333 kts 270°
2026-05-06 22:37 39.99058 -78.73207 37930 ft 333 kts 270°
2026-05-06 22:38 39.99180 -78.78888 37942 ft 334 kts 271°
2026-05-06 22:38 39.99286 -78.83930 37941 ft 334 kts 270°
2026-05-06 22:39 39.99410 -78.89985 37944 ft 333 kts 270°
2026-05-06 22:39 39.99531 -78.96036 37945 ft 334 kts 270°
2026-05-06 22:40 39.99649 -79.02079 37945 ft 333 kts 270°
2026-05-06 22:40 39.99763 -79.08093 37946 ft 333 kts 270°
2026-05-06 22:41 39.99929 -79.17178 37947 ft 334 kts 270°
2026-05-06 22:42 40.00036 -79.23229 37948 ft 333 kts 270°
2026-05-06 22:42 40.00126 -79.28451 37954 ft 331 kts 270°
2026-05-06 22:43 40.00228 -79.34448 37958 ft 331 kts 270°
2026-05-06 22:43 40.00291 -79.38309 37961 ft 331 kts 270°
2026-05-06 22:44 40.00384 -79.44316 37956 ft 331 kts 270°
2026-05-06 22:44 40.00474 -79.50247 38224 ft 329 kts 270°
2026-05-06 22:44 40.00519 -79.53271 38408 ft 328 kts 270°
2026-05-06 22:45 40.00562 -79.56203 38591 ft 327 kts 270°
2026-05-06 22:45 40.00604 -79.59173 38775 ft 327 kts 270°
2026-05-06 22:45 40.00646 -79.62134 38939 ft 326 kts 270°
2026-05-06 22:45 40.00687 -79.65081 39116 ft 325 kts 270°
2026-05-06 22:46 40.00727 -79.68023 39292 ft 323 kts 270°
2026-05-06 22:46 40.00766 -79.70952 39459 ft 323 kts 270°
2026-05-06 22:46 40.00804 -79.73889 39458 ft 326 kts 269°
2026-05-06 22:47 40.00880 -79.79852 39527 ft 330 kts 269°
2026-05-06 22:47 40.00953 -79.85857 39701 ft 332 kts 269°
2026-05-06 22:48 40.01024 -79.91873 39878 ft 332 kts 269°
2026-05-06 22:48 40.01091 -79.97924 39965 ft 334 kts 269°
2026-05-06 22:49 40.01156 -80.03990 39982 ft 334 kts 269°
2026-05-06 22:49 40.01217 -80.10059 39972 ft 335 kts 269°
2026-05-06 22:50 40.01275 -80.16121 39996 ft 334 kts 269°
2026-05-06 22:50 40.01330 -80.22180 40030 ft 336 kts 269°
2026-05-06 22:51 40.01382 -80.28258 39979 ft 334 kts 269°
2026-05-06 22:51 40.01431 -80.34330 39982 ft 335 kts 269°
2026-05-06 22:52 40.01477 -80.40412 39978 ft 335 kts 269°
2026-05-06 22:52 40.01519 -80.46441 39976 ft 335 kts 269°
2026-05-06 22:53 40.01558 -80.52509 39972 ft 335 kts 269°
2026-05-06 22:53 40.01594 -80.58584 39966 ft 335 kts 269°
2026-05-06 22:54 40.01627 -80.64664 39967 ft 335 kts 269°
2026-05-06 22:54 40.01656 -80.70391 39957 ft 336 kts 269°
2026-05-06 22:55 40.01684 -80.76478 39944 ft 336 kts 269°
2026-05-06 22:55 40.01674 -80.82569 39953 ft 335 kts 268°
2026-05-06 22:56 40.01591 -80.88648 39954 ft 335 kts 268°
2026-05-06 22:56 40.01514 -80.94699 39958 ft 335 kts 268°
2026-05-06 22:57 40.01434 -81.00778 39962 ft 335 kts 268°
2026-05-06 22:57 40.01351 -81.06846 39965 ft 334 kts 268°
2026-05-06 22:58 40.01265 -81.12914 39960 ft 333 kts 268°
2026-05-06 22:58 40.01177 -81.18914 39961 ft 333 kts 268°
2026-05-06 22:59 40.01076 -81.24955 39966 ft 332 kts 267°
2026-05-06 22:59 40.00963 -81.30979 39975 ft 332 kts 267°
2026-05-06 23:00 40.00848 -81.37000 39972 ft 331 kts 267°
2026-05-06 23:00 40.00730 -81.43001 39972 ft 331 kts 267°
2026-05-06 23:01 40.00610 -81.48983 39973 ft 330 kts 267°
2026-05-06 23:01 40.00490 -81.54958 39967 ft 329 kts 267°
2026-05-06 23:02 40.00371 -81.60924 39970 ft 329 kts 267°
2026-05-06 23:02 40.00249 -81.66841 39979 ft 328 kts 267°
2026-05-06 23:03 40.00124 -81.72784 39971 ft 327 kts 267°
2026-05-06 23:03 39.99996 -81.78714 39979 ft 327 kts 267°
2026-05-06 23:04 39.99865 -81.84646 39965 ft 326 kts 267°
2026-05-06 23:04 39.99732 -81.90554 39965 ft 326 kts 267°
2026-05-06 23:05 39.99596 -81.96468 39960 ft 326 kts 267°
2026-05-06 23:05 39.99457 -82.02337 39964 ft 326 kts 267°
2026-05-06 23:06 39.99314 -82.08248 39967 ft 326 kts 267°
2026-05-06 23:06 39.99169 -82.14153 39983 ft 326 kts 267°
2026-05-06 23:07 39.99021 -82.20054 39997 ft 326 kts 267°
2026-05-06 23:07 39.98869 -82.25970 39998 ft 326 kts 267°
2026-05-06 23:08 39.98714 -82.31884 40001 ft 326 kts 266°
2026-05-06 23:08 39.98557 -82.37788 39998 ft 326 kts 267°
2026-05-06 23:09 39.98396 -82.43704 39996 ft 326 kts 267°
2026-05-06 23:09 39.98232 -82.49627 39997 ft 327 kts 266°
2026-05-06 23:10 39.98066 -82.55526 39999 ft 327 kts 266°
2026-05-06 23:10 39.97896 -82.61465 40000 ft 327 kts 266°